Simultaneous Nadir Overpasses (SNOs) Predictions

Prediction of SNOs between GOES-14 and AQUA Satellite Orbit:

Table of predicted SNOs for the next 14.0 days since TLE Epoch: 2/18/2023
Index Date Time (GOES-14) GOES-14 Lat,Lon AQUA Lat,Lon Distance(km) Time Diff (sec)
1 02/18/2023 08:43:09 0.04,-108.08 -0.60,-104.96 354.26 80
2 02/18/2023 21:04:15 -0.05,-108.14 -0.44,-110.09 220.64 80
3 02/20/2023 20:53:33 -0.05,-108.12 0.23,-106.83 146.91 80
4 02/21/2023 09:14:30 0.05,-108.05 0.86,-111.90 437.37 80
5 02/23/2023 09:01:07 0.05,-108.03 0.18,-108.64 69.08 80
6 02/25/2023 08:45:03 0.05,-108.00 -0.50,-105.37 299.60 80
7 02/25/2023 21:06:09 -0.05,-108.06 -0.55,-110.48 275.73 80
8 02/27/2023 20:55:24 -0.05,-108.03 0.13,-107.21 93.52 80
9 02/28/2023 09:16:20 0.06,-107.97 0.97,-112.28 489.36 80
10 03/01/2023 20:41:58 -0.06,-108.01 0.81,-103.93 463.08 80
11 03/02/2023 09:02:54 0.07,-107.95 0.28,-109.01 119.92 80
